,,,PA_Meas_PMT16A,,PR_Meas_QMR101_102,,RH_Meas_QMH101,,SR_Meas_QMS101,,TA_Meas_QMH101,,GenWind,,GenWind,
date,time,status,PA,status,PR,status,RH,status,SR,status,TA,status,DirAvg,status,SpdAvg,
2011-06-06, 00:00:04,VALID,1003.81,VALID,0,INVALID,163.624,VALID,0,VALID,25.5921,VALID,79,VALID,0.399609,
2011-06-06, 00:01:04,VALID,1003.78,VALID,0,INVALID,163.601,VALID,0,VALID,25.5142,VALID,38,VALID,0.604688,
2011-06-06, 00:02:04,VALID,1003.8,VALID,0,INVALID,163.655,VALID,0,VALID,25.4734,VALID,37,VALID,0.475,
2011-06-06, 00:03:04,VALID,1003.82,VALID,0,INVALID,163.678,VALID,0,VALID,25.4344,VALID,36,VALID,0.496484,
2011-06-06, 00:04:04,VALID,1003.82,VALID,0,INVALID,163.647,VALID,0,VALID,25.3955,VALID,37,VALID,0.269141,
2011-06-06, 00:05:04,VALID,1003.82,VALID,0,INVALID,163.655,VALID,0,VALID,25.3176,VALID,37,VALID,0.523047,
2011-06-06, 00:06:04,VALID,1003.8,VALID,0,INVALID,163.639,VALID,0,VALID,25.2202,VALID,37,VALID,0.318359,
2011-06-06, 00:07:04,VALID,1003.84,VALID,0,INVALID,163.655,VALID,0,VALID,25.2027,VALID,37,VALID,0.345703,
2011-06-06, 00:08:04,VALID,1003.83,VALID,0,INVALID,163.655,VALID,0,VALID,25.1034,VALID,36,VALID,0.428906,
2011-06-06, 00:09:04,VALID,1003.81,VALID,0,INVALID,163.632,VALID,0,VALID,25.1053,VALID,10,VALID,0.714844,
2011-06-06, 00:10:04,VALID,1003.81,VALID,0,INVALID,163.655,VALID,0,VALID,25.1442,VALID,7,VALID,0.420312,
2011-06-06, 00:11:04,VALID,1003.79,VALID,0,INVALID,163.67,VALID,0,VALID,25.1423,VALID,8,VALID,0.453125,
2011-06-06, 00:12:04,VALID,1003.81,VALID,0,INVALID,163.639,VALID,0,VALID,25.1442,VALID,8,VALID,0.448438,
2011-06-06, 00:13:04,VALID,1003.79,VALID,0,INVALID,163.632,VALID,0,VALID,25.1034,VALID,8,VALID,0.605469,
2011-06-06, 00:14:04,VALID,1003.8,VALID,0,INVALID,163.639,VALID,0,VALID,25.0644,VALID,8,VALID,0.483203,
2011-06-06, 00:15:04,VALID,1003.78,VALID,0,INVALID,163.655,VALID,0,VALID,25.0644,VALID,8,VALID,0.406641,
2011-06-06, 00:16:04,VALID,1003.8,VALID,0,INVALID,163.662,VALID,0,VALID,25.045,VALID,8,VALID,0.319922,
2011-06-06, 00:17:04,VALID,1003.81,VALID,0,INVALID,163.647,VALID,0,VALID,25.0469,VALID,9,VALID,0.539063,
2011-06-06, 00:18:04,VALID,1003.78,VALID,0,INVALID,163.647,VALID,0,VALID,25.0663,VALID,10,VALID,0.329297,
2011-06-06, 00:19:04,VALID,1003.78,VALID,0,INVALID,163.639,VALID,0,VALID,25.0663,VALID,10,VALID,0.320313,
2011-06-06, 00:20:04,VALID,1003.78,VALID,0,INVALID,163.647,VALID,0,VALID,25.0858,VALID,5,VALID,0.598437,
2011-06-06, 00:21:04,VALID,1003.78,VALID,0,INVALID,163.647,VALID,0,VALID,25.1442,VALID,28,VALID,0.548828,
2011-06-06, 00:22:04,VALID,1003.78,VALID,0,INVALID,163.624,VALID,0,VALID,25.2202,VALID,38,VALID,0.400391,
2011-06-06, 00:23:04,VALID,1003.75,VALID,0,INVALID,163.624,VALID,0,VALID,25.3195,VALID,81,VALID,0.487891,
2011-06-06, 00:24:04,VALID,1003.74,VALID,0,INVALID,163.632,VALID,0,VALID,25.4558,VALID,62,VALID,1.18164,
2011-06-06, 00:25:04,VALID,1003.75,VALID,0,INVALID,163.632,VALID,0,VALID,25.6116,VALID,65,VALID,0.366016,
2011-06-06, 00:26:04,VALID,1003.72,VALID,0,INVALID,163.624,VALID,0,VALID,25.7071,VALID,119,VALID,0.725781,
2011-06-06, 00:27:04,VALID,1003.71,VALID,0,INVALID,163.609,VALID,0,VALID,25.8044,VALID,62,VALID,0.261719,
2011-06-06, 00:28:04,VALID,1003.71,VALID,0,INVALID,163.617,VALID,0,VALID,25.8648,VALID,91,VALID,0.691406,
2011-06-06, 00:29:04,VALID,1003.68,VALID,0,INVALID,163.609,VALID,0,VALID,25.9232,VALID,51,VALID,0.250781,
2011-06-06, 00:30:04,VALID,1003.65,VALID,0,INVALID,163.586,VALID,0,VALID,25.9213,VALID,51,VALID,0.11875,
2011-06-06, 00:31:04,VALID,1003.63,VALID,0,INVALID,163.624,VALID,0,VALID,26.0206,VALID,73,VALID,0.871484,
2011-06-06, 00:32:04,VALID,1003.58,VALID,0,INVALID,163.594,VALID,0,VALID,26.0985,VALID,65,VALID,0.301562,
2011-06-06, 00:33:04,VALID,1003.61,VALID,0,INVALID,163.571,VALID,0,VALID,26.0985,VALID,33,VALID,0.218359,
2011-06-06, 00:34:04,VALID,1003.59,VALID,0,INVALID,163.586,VALID,0,VALID,26.118,VALID,83,VALID,0.355859,
2011-06-06, 00:35:04,VALID,1003.56,VALID,0,INVALID,163.594,VALID,0,VALID,26.0966,VALID,88,VALID,0.392969,
2011-06-06, 00:36:04,VALID,1003.54,VALID,0,INVALID,163.578,VALID,0,VALID,26.157,VALID,4,VALID,0.399219,
2011-06-06, 00:37:04,VALID,1003.51,VALID,0,INVALID,163.578,VALID,0,VALID,26.157,VALID,64,VALID,0.186328,
2011-06-06, 00:38:04,VALID,1003.5,VALID,0,INVALID,163.578,VALID,0,VALID,26.1355,VALID,78,VALID,0.267188,
2011-06-06, 00:39:04,VALID,1003.48,VALID,0,INVALID,163.556,VALID,0,VALID,26.157,VALID,298,VALID,0.282031,
2011-06-06, 00:40:04,VALID,1003.46,VALID,0,INVALID,163.571,VALID,0,VALID,26.1765,VALID,179,VALID,0.167187,
2011-06-06, 00:41:04,VALID,1003.45,VALID,0,INVALID,163.54,VALID,0,VALID,26.1375,VALID,179,VALID,0.313281,
2011-06-06, 00:42:04,VALID,1003.42,VALID,0,INVALID,163.586,VALID,0,VALID,26.118,VALID,179,VALID,0.302734,
2011-06-06, 00:43:04,VALID,1003.4,VALID,0,INVALID,163.601,VALID,0,VALID,26.0401,VALID,179,VALID,0.0398437,
2011-06-06, 00:44:04,VALID,1003.37,VALID,0,INVALID,163.601,VALID,0,VALID,25.9602,VALID,54,VALID,0.428516,
2011-06-06, 00:45:04,VALID,1003.41,VALID,0,INVALID,163.617,VALID,0,VALID,25.9232,VALID,54,VALID,0.0660156,
2011-06-06, 00:46:04,VALID,1003.36,VALID,0,INVALID,163.586,VALID,0,VALID,25.8648,VALID,54,VALID,0.0210938,
2011-06-06, 00:47:04,VALID,1003.34,VALID,0,INVALID,163.624,VALID,0,VALID,25.8239,VALID,54,VALID,0.207031,
2011-06-06, 00:48:04,VALID,1003.33,VALID,0,INVALID,163.571,VALID,0,VALID,25.785,VALID,54,VALID,0.168359,
2011-06-06, 00:49:04,VALID,1003.32,VALID,0,INVALID,163.594,VALID,0,VALID,25.7889,VALID,54,VALID,0.373047,
2011-06-06, 00:50:04,VALID,1003.34,VALID,0,INVALID,163.594,VALID,0,VALID,25.7285,VALID,121,VALID,0.35625,
2011-06-06, 00:51:04,VALID,1003.32,VALID,0,INVALID,163.601,VALID,0,VALID,25.709,VALID,11,VALID,0.585547,
2011-06-06, 00:52:04,VALID,1003.32,VALID,0,INVALID,163.594,VALID,0,VALID,25.6876,VALID,21,VALID,1.29727,
2011-06-06, 00:53:04,VALID,1003.3,VALID,0,INVALID,163.609,VALID,0,VALID,25.7071,VALID,55,VALID,0.451562,
2011-06-06, 00:54:04,VALID,1003.3,VALID,0,INVALID,163.617,VALID,0,VALID,25.7071,VALID,55,VALID,0.0726563,
2011-06-06, 00:55:04,VALID,1003.31,VALID,0,INVALID,163.632,VALID,0,VALID,25.748,VALID,55,VALID,0.330859,
2011-06-06, 00:56:04,VALID,1003.31,VALID,0,INVALID,163.609,VALID,0,VALID,25.7674,VALID,80,VALID,0.223828,
2011-06-06, 00:57:04,VALID,1003.31,VALID,0,INVALID,163.609,VALID,0,VALID,25.746,VALID,37,VALID,0.348828,
2011-06-06, 00:58:04,VALID,1003.29,VALID,0,INVALID,163.624,VALID,0,VALID,25.8259,VALID,94,VALID,0.549609,
2011-06-06, 00:59:04,VALID,1003.31,VALID,0,INVALID,163.594,VALID,0,VALID,25.8843,VALID,82,VALID,0.692969,
2011-06-06, 01:00:04,VALID,1003.28,VALID,0,INVALID,163.601,VALID,0,VALID,25.9038,VALID,83,VALID,0.346094,
2011-06-06, 01:01:04,VALID,1003.25,VALID,0,INVALID,163.624,VALID,0,VALID,25.9232,VALID,83,VALID,0.489453,
2011-06-06, 01:02:04,VALID,1003.24,VALID,0,INVALID,163.609,VALID,0,VALID,25.9232,VALID,48,VALID,0.640234,
2011-06-06, 01:03:04,VALID,1003.24,VALID,0,INVALID,163.601,VALID,0,VALID,25.9038,VALID,51,VALID,0.532031,
2011-06-06, 01:04:04,VALID,1003.2,VALID,0,INVALID,163.609,VALID,0,VALID,25.8453,VALID,39,VALID,0.608203,
2011-06-06, 01:05:04,VALID,1003.22,VALID,0,INVALID,163.624,VALID,0,VALID,25.7869,VALID,13,VALID,0.421875,
2011-06-06, 01:06:04,VALID,1003.24,VALID,0,INVALID,163.609,VALID,0,VALID,25.67,VALID,2,VALID,0.475391,
2011-06-06, 01:07:04,VALID,1003.24,VALID,0,INVALID,163.617,VALID,0,VALID,25.5921,VALID,3,VALID,0.430469,
2011-06-06, 01:08:04,VALID,1003.26,VALID,0,INVALID,163.632,VALID,0,VALID,25.5337,VALID,18,VALID,0.545313,
2011-06-06, 01:09:04,VALID,1003.23,VALID,0,INVALID,163.632,VALID,0,VALID,25.4753,VALID,7,VALID,0.229687,
2011-06-06, 01:10:04,VALID,1003.24,VALID,0,INVALID,163.639,VALID,0,VALID,25.4558,VALID,33,VALID,0.540625,
2011-06-06, 01:11:04,VALID,1003.25,VALID,0,INVALID,163.624,VALID,0,VALID,25.4149,VALID,33,VALID,0.51875,
2011-06-06, 01:12:04,VALID,1003.21,VALID,0,INVALID,163.655,VALID,0,VALID,25.4169,VALID,358,VALID,0.703125,
2011-06-06, 01:13:04,VALID,1003.21,VALID,0,INVALID,163.647,VALID,0,VALID,25.3974,VALID,360,VALID,0.618359,
2011-06-06, 01:14:04,VALID,1003.18,VALID,0,INVALID,163.624,VALID,0,VALID,25.339,VALID,360,VALID,0.683984,
2011-06-06, 01:15:04,VALID,1003.16,VALID,0,INVALID,163.647,VALID,0,VALID,25.3,VALID,360,VALID,0.661328,
2011-06-06, 01:16:04,VALID,1003.16,VALID,0,INVALID,163.647,VALID,0,VALID,25.2221,VALID,360,VALID,0.465625,
2011-06-06, 01:17:04,VALID,1003.15,VALID,0,INVALID,163.67,VALID,0,VALID,25.1442,VALID,12,VALID,0.633594,
2011-06-06, 01:18:04,VALID,1003.14,VALID,0,INVALID,163.693,VALID,0,VALID,25.045,VALID,18,VALID,0.419531,
2011-06-06, 01:19:04,VALID,1003.14,VALID,0,INVALID,163.662,VALID,0,VALID,25.0469,VALID,18,VALID,0.590234,
2011-06-06, 01:20:04,VALID,1003.12,VALID,0,INVALID,163.639,VALID,0,VALID,25.0079,VALID,18,VALID,0.594141,
2011-06-06, 01:21:04,VALID,1003.12,VALID,0,INVALID,163.655,VALID,0,VALID,25.0079,VALID,18,VALID,0.338281,
2011-06-06, 01:22:04,VALID,1003.1,VALID,0,INVALID,163.685,VALID,0,VALID,25.0079,VALID,18,VALID,0.440234,
2011-06-06, 01:23:04,VALID,1003.11,VALID,0,INVALID,163.67,VALID,0,VALID,24.9885,VALID,18,VALID,0.473047,
2011-06-06, 01:24:04,VALID,1003.08,VALID,0,INVALID,163.647,VALID,0,VALID,24.9885,VALID,18,VALID,0.312109,
2011-06-06, 01:25:04,VALID,1003.08,VALID,0,INVALID,163.662,VALID,0,VALID,24.9885,VALID,18,VALID,0.39375,
2011-06-06, 01:26:04,VALID,1003.08,VALID,0,INVALID,163.662,VALID,0,VALID,25.0469,VALID,21,VALID,0.576172,
2011-06-06, 01:27:04,VALID,1003.09,VALID,0,INVALID,163.647,VALID,0,VALID,25.1267,VALID,21,VALID,0.499609,
2011-06-06, 01:28:04,VALID,1003.09,VALID,0,INVALID,163.678,VALID,0,VALID,25.1248,VALID,21,VALID,0.411719,
2011-06-06, 01:29:04,VALID,1003.08,VALID,0,INVALID,163.662,VALID,0.100563,VALID,25.1034,VALID,21,VALID,0.428906,
2011-06-06, 01:30:04,VALID,1003.06,VALID,0,INVALID,163.678,VALID,0,VALID,25.1034,VALID,21,VALID,0.213672,
2011-06-06, 01:31:04,VALID,1003.07,VALID,0,INVALID,163.647,VALID,0.100563,VALID,25.0839,VALID,21,VALID,0.272656,
2011-06-06, 01:32:04,VALID,1003.1,VALID,0,INVALID,163.678,VALID,0,VALID,25.1034,VALID,79,VALID,0.331641,
2011-06-06, 01:33:04,VALID,1003.08,VALID,0,INVALID,163.639,VALID,0,VALID,25.1618,VALID,79,VALID,0.184375,
2011-06-06, 01:34:04,VALID,1003.06,VALID,0,INVALID,163.655,VALID,0,VALID,25.1618,VALID,79,VALID,0.0761719,
2011-06-06, 01:35:04,VALID,1003.02,VALID,0,INVALID,163.639,VALID,0,VALID,25.1423,VALID,79,VALID,0.321094,
2011-06-06, 01:36:04,VALID,1002.96,VALID,0,INVALID,163.647,VALID,0,VALID,25.1015,VALID,72,VALID,0.369141,
2011-06-06, 01:37:04,VALID,1003.01,VALID,0,INVALID,163.617,VALID,0.100563,VALID,25.1229,VALID,72,VALID,0.2375,
2011-06-06, 01:38:04,VALID,1003.02,VALID,0,INVALID,163.639,VALID,0,VALID,25.0625,VALID,60,VALID,0.604688,
2011-06-06, 01:39:04,VALID,1003.05,VALID,0,INVALID,163.632,VALID,0,VALID,25.0431,VALID,39,VALID,0.801562,
2011-06-06, 01:40:04,VALID,1003.11,VALID,0,INVALID,163.662,VALID,0,VALID,25.0431,VALID,29,VALID,0.594141,
2011-06-06, 01:41:04,VALID,1003.24,VALID,0,INVALID,163.678,VALID,0,VALID,25.1229,VALID,73,VALID,1.02383,
2011-06-06, 01:42:04,VALID,1003.19,VALID,0,INVALID,163.662,VALID,0.100563,VALID,25.2786,VALID,104,VALID,1.58359,
2011-06-06, 01:43:04,VALID,1003.29,VALID,0,INVALID,163.617,VALID,0.100563,VALID,25.7071,VALID,88,VALID,1.86289,
2011-06-06, 01:44:04,VALID,1003.25,VALID,0,INVALID,163.594,VALID,0,VALID,26.0206,VALID,41,VALID,3.08242,
2011-06-06, 01:45:04,VALID,1003.36,VALID,0,INVALID,163.578,VALID,0,VALID,26.1355,VALID,47,VALID,1.6207,
2011-06-06, 01:46:04,VALID,1003.35,VALID,0,INVALID,163.586,VALID,0,VALID,26.2349,VALID,81,VALID,2.72734,
2011-06-06, 01:47:04,VALID,1003.34,VALID,0,INVALID,163.586,VALID,0,VALID,26.2524,VALID,106,VALID,2.01211,
2011-06-06, 01:48:04,VALID,1003.33,VALID,0,INVALID,163.525,VALID,0,VALID,26.2524,VALID,94,VALID,1.06328,
2011-06-06, 01:49:04,VALID,1003.34,VALID,0,INVALID,163.571,VALID,0,VALID,26.2134,VALID,94,VALID,1.00039,
2011-06-06, 01:50:04,VALID,1003.36,VALID,0,INVALID,163.586,VALID,0,VALID,26.1355,VALID,21,VALID,1.47695,
2011-06-06, 01:51:04,VALID,1003.34,VALID,0,INVALID,163.586,VALID,0,VALID,26.0791,VALID,71,VALID,1.22031,
2011-06-06, 01:52:04,VALID,1003.31,VALID,0,INVALID,163.571,VALID,0,VALID,25.9817,VALID,94,VALID,2.34023,
2011-06-06, 01:53:04,VALID,1003.33,VALID,0,INVALID,163.594,VALID,0,VALID,25.9427,VALID,78,VALID,1.40742,
2011-06-06, 01:54:04,VALID,1003.36,VALID,0,INVALID,163.594,VALID,0,VALID,25.8823,VALID,101,VALID,1.10742,
2011-06-06, 01:55:04,VALID,1003.3,VALID,0,INVALID,163.632,VALID,0,VALID,25.8259,VALID,109,VALID,1.06914,
2011-06-06, 01:56:04,VALID,1003.29,VALID,0,INVALID,163.609,VALID,0,VALID,25.7674,VALID,103,VALID,0.728906,
2011-06-06, 01:57:04,VALID,1003.25,VALID,0,INVALID,163.624,VALID,0,VALID,25.746,VALID,95,VALID,0.675,
2011-06-06, 01:58:04,VALID,1003.23,VALID,0,INVALID,163.617,VALID,0,VALID,25.709,VALID,97,VALID,0.374609,
2011-06-06, 01:59:04,VALID,1003.14,VALID,0,INVALID,163.594,VALID,0,VALID,25.6895,VALID,81,VALID,0.308594,
2011-06-06, 02:00:04,VALID,1003.11,VALID,0,INVALID,163.624,VALID,0,VALID,25.6097,VALID,88,VALID,0.305469,
2011-06-06, 02:01:04,VALID,1003.07,VALID,0,INVALID,163.632,VALID,0,VALID,25.5902,VALID,112,VALID,0.961719,
2011-06-06, 02:02:04,VALID,1003.12,VALID,0,INVALID,163.632,VALID,0,VALID,25.5707,VALID,82,VALID,0.466016,
2011-06-06, 02:03:04,VALID,1003.14,VALID,0,INVALID,163.632,VALID,0,VALID,25.5532,VALID,28,VALID,0.346484,
2011-06-06, 02:04:04,VALID,1003.15,VALID,0,INVALID,163.632,VALID,0,VALID,25.4948,VALID,99,VALID,0.659375,
2011-06-06, 02:05:04,VALID,1003.14,VALID,0,INVALID,163.632,VALID,0,VALID,25.4539,VALID,54,VALID,0.990625,
2011-06-06, 02:06:04,VALID,1003.13,VALID,0,INVALID,163.632,VALID,0,VALID,25.4577,VALID,126,VALID,1.02656,
2011-06-06, 02:07:04,VALID,1003.13,VALID,0,INVALID,163.624,VALID,0,VALID,25.4149,VALID,123,VALID,0.496484,
2011-06-06, 02:08:04,VALID,1003.11,VALID,0,INVALID,163.617,VALID,0,VALID,25.376,VALID,145,VALID,1.13945,
2011-06-06, 02:09:04,VALID,1003.12,VALID,0,INVALID,163.632,VALID,0,VALID,25.4363,VALID,139,VALID,0.935547,
2011-06-06, 02:10:04,VALID,1003.08,VALID,0,INVALID,163.655,VALID,0,VALID,25.4344,VALID,152,VALID,0.664453,
2011-06-06, 02:11:04,VALID,1003.09,VALID,0,INVALID,163.647,VALID,0,VALID,25.4558,VALID,160,VALID,0.886719,
2011-06-06, 02:12:04,VALID,1003.11,VALID,0,INVALID,163.655,VALID,0,VALID,25.4344,VALID,152,VALID,0.559375,
2011-06-06, 02:13:04,VALID,1003.11,VALID,0,INVALID,163.632,VALID,0,VALID,25.4772,VALID,152,VALID,0.494141,
2011-06-06, 02:14:04,VALID,1003.11,VALID,0,INVALID,163.632,VALID,0,VALID,25.4363,VALID,152,VALID,0.155859,
2011-06-06, 02:15:04,VALID,1003.1,VALID,0,INVALID,163.609,VALID,0,VALID,25.376,VALID,152,VALID,0.394922,
2011-06-06, 02:16:04,VALID,1003.06,VALID,0,INVALID,163.624,VALID,0,VALID,25.3779,VALID,152,VALID,0.0128906,
2011-06-06, 02:17:04,VALID,1003.06,VALID,0,INVALID,163.639,VALID,0,VALID,25.337,VALID,169,VALID,0.419531,
2011-06-06, 02:18:04,VALID,1003.03,VALID,0,INVALID,163.639,VALID,0,VALID,25.339,VALID,287,VALID,0.498047,
2011-06-06, 02:19:04,VALID,1003.01,VALID,0,INVALID,163.655,VALID,0,VALID,25.2202,VALID,356,VALID,0.905078,
2011-06-06, 02:20:04,VALID,1002.97,VALID,0,INVALID,163.662,VALID,0,VALID,25.1813,VALID,356,VALID,0.807031,
2011-06-06, 02:21:04,VALID,1002.95,VALID,0,INVALID,163.662,VALID,0,VALID,25.1053,VALID,356,VALID,0.670313,
2011-06-06, 02:22:04,VALID,1002.9,VALID,0,INVALID,163.678,VALID,0,VALID,24.9866,VALID,357,VALID,0.728906,
2011-06-06, 02:23:04,VALID,1002.84,VALID,0,INVALID,163.662,VALID,0,VALID,24.9495,VALID,10,VALID,0.935547,
2011-06-06, 02:24:04,VALID,1002.8,VALID,0,INVALID,163.701,VALID,0,VALID,24.8503,VALID,22,VALID,1.05039,
2011-06-06, 02:25:04,VALID,1002.76,VALID,0,INVALID,163.678,VALID,0,VALID,24.7919,VALID,25,VALID,1.35586,
2011-06-06, 02:26:04,VALID,1002.71,VALID,0,INVALID,163.693,VALID,0,VALID,24.8132,VALID,33,VALID,0.854688,
2011-06-06, 02:27:04,VALID,1002.69,VALID,0,INVALID,163.708,VALID,0,VALID,24.7743,VALID,33,VALID,0.550781,
2011-06-06, 02:28:04,VALID,1002.63,VALID,0,INVALID,163.708,VALID,0,VALID,24.7743,VALID,359,VALID,0.724609,
2011-06-06, 02:29:04,VALID,1002.62,VALID,0,INVALID,163.67,VALID,0,VALID,24.7548,VALID,360,VALID,0.711719,
2011-06-06, 02:30:04,VALID,1002.58,VALID,0,INVALID,163.701,VALID,0,VALID,24.6945,VALID,5,VALID,0.489844,
2011-06-06, 02:31:04,VALID,1002.52,VALID,0,INVALID,163.678,VALID,0,VALID,24.6945,VALID,6,VALID,0.524219,
2011-06-06, 02:32:04,VALID,1002.49,VALID,0,INVALID,163.662,VALID,0,VALID,24.6964,VALID,7,VALID,0.391016,
2011-06-06, 02:33:04,VALID,1002.45,VALID,0,INVALID,163.693,VALID,0,VALID,24.6574,VALID,16,VALID,1.00469,
2011-06-06, 02:34:04,VALID,1002.45,VALID,0,INVALID,163.723,VALID,0,VALID,24.6361,VALID,16,VALID,0.674609,
2011-06-06, 02:35:04,VALID,1002.43,VALID,0,INVALID,163.678,VALID,0,VALID,24.6769,VALID,12,VALID,0.315625,
2011-06-06, 02:36:04,VALID,1002.43,VALID,0,INVALID,163.67,VALID,0,VALID,24.6964,VALID,22,VALID,0.424219,
2011-06-06, 02:37:04,VALID,1002.41,VALID,0,INVALID,163.693,VALID,0,VALID,24.6945,VALID,21,VALID,0.226953,
2011-06-06, 02:38:04,VALID,1002.38,VALID,0,INVALID,163.678,VALID,0,VALID,24.7548,VALID,6,VALID,0.391406,
2011-06-06, 02:39:04,VALID,1002.4,VALID,0,INVALID,163.662,VALID,0,VALID,24.8113,VALID,7,VALID,0.157031,
2011-06-06, 02:40:04,VALID,1002.39,VALID,0,INVALID,163.662,VALID,0,VALID,24.8308,VALID,73,VALID,0.685547,
2011-06-06, 02:41:04,VALID,1002.4,VALID,0,INVALID,163.685,VALID,0,VALID,24.8892,VALID,31,VALID,0.991016,
2011-06-06, 02:42:04,VALID,1002.41,VALID,0,INVALID,163.655,VALID,0,VALID,24.9476,VALID,50,VALID,0.313281,
2011-06-06, 02:43:04,VALID,1002.4,VALID,0,INVALID,163.67,VALID,0.100563,VALID,24.9476,VALID,50,VALID,0.296094,
2011-06-06, 02:44:04,VALID,1002.41,VALID,0,INVALID,163.662,VALID,0,VALID,24.9282,VALID,50,VALID,0.580078,
2011-06-06, 02:45:04,VALID,1002.39,VALID,0,INVALID,163.693,VALID,0,VALID,24.9087,VALID,47,VALID,0.455469,
2011-06-06, 02:46:04,VALID,1002.37,VALID,0,INVALID,163.678,VALID,0.100563,VALID,24.8503,VALID,44,VALID,0.653906,
2011-06-06, 02:47:04,VALID,1002.36,VALID,0,INVALID,163.685,VALID,0,VALID,24.8308,VALID,42,VALID,0.158984,
2011-06-06, 02:48:04,VALID,1002.36,VALID,0,INVALID,163.693,VALID,0,VALID,24.7919,VALID,40,VALID,0.434375,
2011-06-06, 02:49:04,VALID,1002.37,VALID,0,INVALID,163.678,VALID,0,VALID,24.7919,VALID,63,VALID,0.335547,
2011-06-06, 02:50:04,VALID,1002.36,VALID,0,INVALID,163.67,VALID,0,VALID,24.8308,VALID,78,VALID,0.383203,
2011-06-06, 02:51:04,VALID,1002.36,VALID,0,INVALID,163.647,VALID,0,VALID,24.8697,VALID,77,VALID,0.613281,
2011-06-06, 02:52:04,VALID,1002.35,VALID,0,INVALID,163.685,VALID,0,VALID,24.9087,VALID,90,VALID,0.229687,
2011-06-06, 02:53:04,VALID,1002.4,VALID,0,INVALID,163.662,VALID,0.100563,VALID,24.9282,VALID,74,VALID,0.193359,
2011-06-06, 02:54:04,VALID,1002.38,VALID,0,INVALID,163.678,VALID,0,VALID,24.9671,VALID,94,VALID,0.887109,
2011-06-06, 02:55:04,VALID,1002.39,VALID,0,INVALID,163.662,VALID,0,VALID,25.0839,VALID,80,VALID,0.674219,
2011-06-06, 02:56:04,VALID,1002.38,VALID,0,INVALID,163.655,VALID,0,VALID,25.1229,VALID,105,VALID,0.780469,
2011-06-06, 02:57:04,VALID,1002.39,VALID,0,INVALID,163.678,VALID,0,VALID,25.1404,VALID,76,VALID,0.525391,
2011-06-06, 02:58:04,VALID,1002.36,VALID,0,INVALID,163.662,VALID,0,VALID,25.2027,VALID,82,VALID,0.179297,
2011-06-06, 02:59:04,VALID,1002.38,VALID,0,INVALID,163.647,VALID,0,VALID,25.2786,VALID,49,VALID,1.08555,
2011-06-06, 03:00:04,VALID,1002.42,VALID,0,INVALID,163.639,VALID,0,VALID,25.3565,VALID,85,VALID,0.896094,
2011-06-06, 03:01:04,VALID,1002.44,VALID,0,INVALID,163.617,VALID,0,VALID,25.376,VALID,61,VALID,0.506641,
2011-06-06, 03:02:04,VALID,1002.4,VALID,0,INVALID,163.655,VALID,0,VALID,25.3565,VALID,115,VALID,0.620703,
2011-06-06, 03:03:04,VALID,1002.39,VALID,0,INVALID,163.624,VALID,0,VALID,25.3157,VALID,116,VALID,1.15859,
2011-06-06, 03:04:04,VALID,1002.42,VALID,0,INVALID,163.639,VALID,0,VALID,25.3779,VALID,60,VALID,0.475781,
2011-06-06, 03:05:04,VALID,1002.4,VALID,0,INVALID,163.601,VALID,0,VALID,25.3565,VALID,36,VALID,0.818359,
2011-06-06, 03:06:04,VALID,1002.43,VALID,0,INVALID,158.635,VALID,0,VALID,25.376,VALID,100,VALID,0.933594,
2011-06-06, 03:07:04,VALID,1002.46,VALID,0,INVALID,163.586,VALID,0.100563,VALID,25.376,VALID,71,VALID,0.265234,
2011-06-06, 03:08:04,VALID,1002.49,VALID,0,INVALID,154.218,VALID,0,VALID,25.376,VALID,98,VALID,1.07852,
2011-06-06, 03:09:04,VALID,1002.48,VALID,0,INVALID,163.594,VALID,0,VALID,25.3565,VALID,82,VALID,0.251953,
2011-06-06, 03:10:04,VALID,1002.48,VALID,0,INVALID,163.365,VALID,0,VALID,25.3176,VALID,97,VALID,0.571875,
2011-06-06, 03:11:04,VALID,1002.45,VALID,0,INVALID,162.724,VALID,0,VALID,25.3176,VALID,109,VALID,0.480859,
2011-06-06, 03:12:04,VALID,1002.46,VALID,0,INVALID,153.241,VALID,0,VALID,25.3176,VALID,67,VALID,0.475,
2011-06-06, 03:13:04,VALID,1002.43,VALID,0,INVALID,163.586,VALID,0,VALID,25.3176,VALID,68,VALID,0.282422,
2011-06-06, 03:14:04,VALID,1002.43,VALID,0,INVALID,163.601,VALID,0,VALID,25.2981,VALID,67,VALID,0.267578,
2011-06-06, 03:15:04,VALID,1002.4,VALID,0,INVALID,163.639,VALID,0,VALID,25.2786,VALID,51,VALID,0.35,
2011-06-06, 03:16:04,VALID,1002.4,VALID,0,INVALID,163.632,VALID,0,VALID,25.2592,VALID,79,VALID,0.346094,
2011-06-06, 03:17:04,VALID,1002.4,VALID,0,INVALID,163.609,VALID,0,VALID,25.2786,VALID,337,VALID,0.771094,
2011-06-06, 03:18:04,VALID,1002.42,VALID,0,INVALID,163.601,VALID,0,VALID,25.337,VALID,155,VALID,0.6625,
2011-06-06, 03:19:04,VALID,1002.4,VALID,0,INVALID,163.601,VALID,0,VALID,25.4169,VALID,112,VALID,0.627344,
2011-06-06, 03:20:04,VALID,1002.41,VALID,0,INVALID,163.639,VALID,0,VALID,25.3974,VALID,112,VALID,0.320703,
2011-06-06, 03:21:04,VALID,1002.42,VALID,0,INVALID,163.601,VALID,0,VALID,25.376,VALID,112,VALID,0.167187,
2011-06-06, 03:22:04,VALID,1002.41,VALID,0,INVALID,163.632,VALID,0,VALID,25.337,VALID,61,VALID,0.440625,
2011-06-06, 03:23:04,VALID,1002.43,VALID,0,INVALID,163.647,VALID,0,VALID,25.2981,VALID,58,VALID,0.170312,
2011-06-06, 03:24:04,VALID,1002.43,VALID,0,INVALID,163.639,VALID,0,VALID,25.2202,VALID,356,VALID,0.219922,
2011-06-06, 03:25:04,VALID,1002.44,VALID,0,INVALID,163.662,VALID,0,VALID,25.1618,VALID,356,VALID,0.183203,
2011-06-06, 03:26:04,VALID,1002.44,VALID,0,INVALID,163.655,VALID,0,VALID,25.1034,VALID,20,VALID,0.427734,
2011-06-06, 03:27:04,VALID,1002.44,VALID,0,INVALID,163.655,VALID,0,VALID,25.0625,VALID,7,VALID,0.426562,
2011-06-06, 03:28:04,VALID,1002.44,VALID,0,INVALID,163.678,VALID,0,VALID,25.0858,VALID,37,VALID,0.285937,
2011-06-06, 03:29:04,VALID,1002.46,VALID,0,INVALID,163.647,VALID,0,VALID,25.0663,VALID,22,VALID,0.130078,
2011-06-06, 03:30:04,VALID,1002.45,VALID,0,INVALID,163.647,VALID,0,VALID,25.0255,VALID,22,VALID,0,
2011-06-06, 03:31:04,VALID,1002.47,VALID,0,INVALID,163.67,VALID,0,VALID,25.045,VALID,35,VALID,0.367969,
2011-06-06, 03:32:04,VALID,1002.47,VALID,0,INVALID,163.639,VALID,0,VALID,25.0625,VALID,35,VALID,0.478516,
2011-06-06, 03:33:04,VALID,1002.5,VALID,0,INVALID,163.639,VALID,0,VALID,25.1637,VALID,23,VALID,0.467578,
2011-06-06, 03:34:04,VALID,1002.56,VALID,0,INVALID,163.662,VALID,0,VALID,25.1794,VALID,74,VALID,0.713281,
2011-06-06, 03:35:04,VALID,1002.61,VALID,0,INVALID,163.624,VALID,0,VALID,25.2611,VALID,99,VALID,0.282031,
2011-06-06, 03:36:04,VALID,1002.62,VALID,0,INVALID,163.647,VALID,0,VALID,25.3,VALID,61,VALID,0.354688,
2011-06-06, 03:37:04,VALID,1002.64,VALID,0,INVALID,163.655,VALID,0,VALID,25.3176,VALID,16,VALID,0.224219,
2011-06-06, 03:38:04,VALID,1002.67,VALID,0,INVALID,163.662,VALID,0,VALID,25.339,VALID,67,VALID,0.622656,
2011-06-06, 03:39:04,VALID,1002.68,VALID,0,INVALID,163.632,VALID,0,VALID,25.3584,VALID,70,VALID,0.422656,
2011-06-06, 03:40:04,VALID,1002.69,VALID,0,INVALID,163.624,VALID,0,VALID,25.337,VALID,63,VALID,0.944531,
2011-06-06, 03:41:04,VALID,1002.71,VALID,0,INVALID,163.632,VALID,0,VALID,25.4169,VALID,90,VALID,0.561328,